ONEWEB-0069, 45430

Orbit data source: Space-Track

ONEWEB-0069, 45430 is a payload satellite owned by One Web (UK) in LEO that was launched on Sat, 21 Mar 2020 UTC via a SOYUZ-2-1B launch vehicle from the Tyuratam Missile And Space Complex (TTMTR). Payload-class satellites include a variety of spacecraft equipped with specific instruments for various scientific and technological missions. These include communications satellites like Starlink; space stations such as the ISS; scientific satellites like the Hubble; Earth observation satellites from companies like Planet Labs, Umbra, and HawkEye 360; GPS; miniature CubeSats for education and research; and military/defense satellites.

Loading next visibility...
Identifier
45430, 2020-020G
Orbit
LEO
Country
Flag of UKUK
Related business
Manufacturer
One Web
Mission
Operational Commercial Communications
Bus & Motor
ARROW, Unknown motor
Mass
148 kg wet, ~140 kg dry
Launch date (UTC)
2020-03-21 (6 years ago)
Launch vehicle
SOYUZ-2-1B
Launch site
Tyuratam Missile And Space Complex (TTMTR)
Object type
Payload
Rocket body
Debris
Shape & HBR
Trap Box + 2 Pan, 6.7 m
Radar Cross Section
3.464 m², Large (>1 m²)

Expand to show TLE details & history
Last TLE update: 9 hours ago

TLE from 9 hours ago
0 ONEWEB-0069
1 45430U 20020G   26035.07750126  .00000002  00000-0 -30629-4 0  9991
2 45430  87.8825  47.5471 0001810  88.3961 271.7374 13.11418019285228
Epoch: 2026-02-04T01:51Z
TLE epoch observation values (Epoch: 2026-02-04T01:51:36.108Z)
Latitude
-0.00007°
Longitude
-114.60261°
Altitude
1,220.526 km
Speed
7.244 km/s
True Right ascension
03h 10m 11s
True Declination
0° 00' 00"
Sunlit
Object was in daylight at epoch
Visualization orbit readout
Latitude
Unknown
Longitude
Unknown
Altitude
Unknown
Speed
Unknown
Apparent Right ascension
Unknown
Apparent Declination
Unknown
Sunlit
N/A
Visualization observer readout
Local Sidereal Time
12:41:17
Azimuth
Unknown
Elevation
Unknown
Doppler factor
Unknown
Orbital elements
Apogee altitude
1,216.171 km
Perigee altitude
1,213.423 km
Semi-major axis
7,592.934 km
Eccentricity
0.00018
Inclination
87.8825°
RAAN
47.5471°
Arg. of periapsis
88.3961°
True anomaly
271.71667°
Mean anomaly
271.7374°
Eccentric anomaly
271.72703°
Mean motion
3.28041 °/min
Orbital period
109.74 mins
BSTAR
-0.000030629
Loading maneuver chart data...
Computing Atmospheric mass density...
Loading historical data...
Loading historical data...
Loading historical data...
Loading historical data...
Loading historical data...
Loading historical data...
Loading historical data...

Documentation

Showing up to 5 results
|